Regional Weather Roundup
Issued by NWS

Home | Current Version | Previous Version | Graphics & Text | Print | Product List | Glossary On
Versions: 1 2 3 4 5 6 7 8 9 10 11 12 13 14 15 16 17 18 19 20 21 22 23 24 25 26 27 28 29 30 31 32 33 34 35 36 37 38 39 40 41 42 43 44 45 46 47 48 49 50
000
ASUS43 KBIS 250602
RWRND

NORTH DAKOTA REGIONAL WEATHER ROUNDUP
NATIONAL WEATHER SERVICE BISMARCK ND
100 AM CDT MON JUL 25 2016

NOTE: "FAIR" INDICATES FEW OR NO CLOUDS BELOW 12,000 FEET WITH NO
SIGNIFICANT WEATHER AND/OR OBSTRUCTIONS TO VISIBILITY.


NDZ001>003-009>011-017-250700-
NORTHWEST NORTH DAKOTA

CITY           SKY/WX    TMP DP  RH WIND       PRES   REMARKS
WILLISTON      CLEAR     66  57  72 N7        29.99S
6HR MIN TEMP:  66; 6HR MAX TEMP:  87;

MINOT          CLEAR     67  59  75 CALM      30.01R
MINOT AFB      CLEAR     62  57  86 SW5       30.00R
$$

NDZ018>021-031>035-040>046-250700-
SOUTHWEST NORTH DAKOTA

CITY           SKY/WX    TMP DP  RH WIND       PRES   REMARKS
BISMARCK       CLEAR     64  59  83 SE5       30.04R
6HR MIN TEMP:  63; 6HR MAX TEMP:  84;

DICKINSON      CLEAR     61  53  75 S8        30.03S
GARRISON         N/A     62  59  90 CALM      30.02S
6HR MIN TEMP:  61; 6HR MAX TEMP:  80;

HETTINGER ARPT CLEAR     67  49  52 SE6       30.07S
$$

NDZ004>008-012>016-024-026-027-054-250700-
NORTHEAST NORTH DAKOTA

CITY           SKY/WX    TMP DP  RH WIND       PRES   REMARKS
GRAND FORKS    PTCLDY    63  59  87 W7        29.95S
GRND FRKS AFB  CLEAR     64  60  85 W7        29.97R
DEVILS LAKE    CLEAR     62  59  90 CALM      30.01R
$$

NDZ022-023-025-028>030-036>039-047>053-250700-
SOUTHEAST NORTH DAKOTA

CITY           SKY/WX    TMP DP  RH WIND       PRES   REMARKS
FARGO          CLEAR     64  58  80 W7        29.98S
6HR MIN TEMP:  62; 6HR MAX TEMP:  81;

JAMESTOWN      CLEAR     61  59  93 CALM      30.02S
$$




USA.gov is the U.S. government's official web portal to all federal, state and local government web resources and services.